SL-14 DEB

Satellite information

Favourite Embed

Satellite Type and Status

DEBRISDECAYED

Key statistics

Satellite SL-14 DEB at a glance.

Uptime

12386

Days in orbit

Revolutions

≈ 16.2

Per day

Orbit

LEO

Low Earth Orbit

Inclination

82.4

Latest

Satellite identification and parameters

Extended collection of information and parameters for SL-14 DEB.

Object identification

Identified? True

Debris? True

Object name: SL-14 DEB

International designator: 1991-086F

Object number (NORAD): 21905

Object ID (CCSDS): 21905

Country: COMMONWEALTH OF INDEPENDENT STATES (CIS)

Current information (Y/N): Y

RCS size: SMALL

Orbital parameters

Decay date: Nov. 15, 2025

Period: 89.128 minutes

Inclination: 82.38 deg

SMA: 6609.507 km

Apoapsis: 244.749 km

Periapsis: 217.994 km

RAAN: 26.6514 deg

Eccentricy: 0.002024

Argument of periapsis: 172.7535 deg

Mean anomaly: 187.4048 deg

Mean motion: 16.15657052 rev/day

Mean motion (dot): 0.09452516 rev/day2

B* drag term: 0.0066833 1/REarth

Two-line elements (TLE)

Creation date: Nov. 13, 2025, 8:56 p.m.

Reference frame: TEME

Reference center: EARTH

Epoch: Nov. 13, 2025, 11:16 a.m. UTC

TLE line 0: 0 SL-14 DEB

TLE line 1: 1 21905U 91086F 25317.46993241 .09452516 -12359-5 66833-2 0 9993

TLE line 2: 2 21905 82.3800 26.6514 0020240 172.7535 187.4048 16.15657052609298

Live tracking on map

Satellite SL-14 DEB has decayed and is no longer in orbit. No tracking available.

In-orbit conjunctions

Satellite SL-14 DEB has decayed and is no longer in orbit. No conjunctions available.

Associated space launch

Scientific satellite dedicated to the ionosphere and magnetosphere

SL-14 DEB was lifted into orbit during the mission ‘Tsiklon-3 | AUOS-Z-AP-IK 1’, on board a Tsiklon-3 space rocket.

The launch took place on Dec. 18, 1991, 3:54 a.m. from 32/2.

For more information about the launch, click the button.

Launch to space Tsiklon-3 | AUOS-Z-AP-IK 1
Tsiklon-3 | AUOS-Z-AP-IK 1

Agency: N/A

Status: Launch Successful

Launch date: Dec. 18, 1991, 3:54 a.m. UTC

Rocket: Tsiklon-3

Launch pad: 32/2

Location: Plesetsk Cosmodrome, Russian Federation

...

Latest news about this satellite

There are no fresh news available about this satellite. Check back as we update our databases every day.


Newsletter sign-up

Weekly statistics, charts and insights to help you stay on top of the space industry.